This is the latest recevied weather packets stored in our database for station/object KQ4OSL. If no packets are shown the sender has not sent any weather packets the latest 10 day(s).
| Time | Temp. | Humidity | Pressure | Rain* | Wind** | Luminosity | Snow |
|---|---|---|---|---|---|---|---|
| 1788021906 | 26.11° C | 89% | 1023.6 hPa | 0 mm | - | 148 W/m² | - |
| 1788021601 | 26.11° C | 89% | 1023.5 hPa | 0 mm | - | 295 W/m² | - |
| 1788021299 | 26.11° C | 89% | 1023.4 hPa | 0 mm | - | 322 W/m² | - |
| 1788020994 | 25.56° C | 92% | 1023.4 hPa | 0 mm | - | 298 W/m² | - |
| 1788020690 | 25.56° C | 91% | 1023.4 hPa | 0 mm | - | 128 W/m² | - |
| 1788020389 | 25.56° C | 91% | 1023.4 hPa | 0 mm | - | 262 W/m² | - |
| 1788020086 | 25.56° C | 92% | 1023.4 hPa | 0 mm | - | 233 W/m² | - |
| 1788019781 | 25° C | 94% | 1023.4 hPa | 0 mm | - | 149 W/m² | - |
| 1788019480 | 25° C | 94% | 1023.2 hPa | 0 mm | - | 127 W/m² | - |
| 1788019178 | 25° C | 93% | 1023.2 hPa | 0 mm | - | 178 W/m² | - |
| 1788018873 | 25° C | 92% | 1023.3 hPa | 0 mm | - | 220 W/m² | - |
| 1788018568 | 25° C | 93% | 1023.3 hPa | 0 mm | - | 202 W/m² | - |
| 1788018266 | 25° C | 93% | 1023.4 hPa | 0 mm | - | 154 W/m² | - |
| 1788017963 | 25° C | 94% | 1023.3 hPa | 0 mm | - | 213 W/m² | - |
| 1788017659 | 25° C | 96% | 1023.4 hPa | 0 mm | - | 160 W/m² | - |
| 1788017356 | 24.44° C | 95% | 1023.4 hPa | 0 mm | - | 136 W/m² | - |
| 1788017052 | 24.44° C | 95% | 1023.3 hPa | 0 mm | - | 136 W/m² | - |
| 1788016751 | 24.44° C | 95% | 1023.5 hPa | 0 mm | - | 169 W/m² | - |
| 1788016449 | 23.89° C | 96% | 1023.4 hPa | 0 mm | - | 163 W/m² | - |
| 1788016149 | 24.44° C | 96% | 1023.2 hPa | 0 mm | - | 161 W/m² | - |
| 1788015848 | 24.44° C | 96% | 1023.3 hPa | 0 mm | - | 140 W/m² | - |
| 1788015543 | 23.89° C | 96% | 1023.1 hPa | 0 mm | - | 152 W/m² | - |
| 1788015238 | 23.89° C | 96% | 1023.2 hPa | 0 mm | - | 175 W/m² | - |
| 1788014936 | 23.89° C | 96% | 1023.3 hPa | 0 mm | - | 195 W/m² | - |
| 1788014631 | 23.89° C | 97% | 1023.3 hPa | 0 mm | - | 115 W/m² | - |
* Rain latest hour (hover to see other rain measurements)
** Current wind speed in m/s (hover to see current wind gust speed)